sat.trackr.live / text

‹ back to catalog

STARLINK-34179

NORAD 64103 · 2025-110H

PAYLOAD ACTIVE UNKNOWN

§ Identity

Operator
Country
US
Launch date
2025-05-23
Launch site
AFWTR
Launch vehicle
Mass (kg)
RCS (m²)

Purposes: comms

External: N2YO · Heavens-Above · Gunter

§ Orbital elements

Epoch: 2026-09-20T10:54:41.984640Z

Period
94.01 min
Inclination
53.1579°
Eccentricity
0.0002201
Mean motion
15.31719838 rev/d
Perigee alt
469.2 km
Apogee alt
472.2 km
Semi-major
6,848.8 km
B*
4.6320e-4
RAAN
201.9721°
Arg perigee
86.1437°
Mean anomaly
273.9816°
Rev number
7,570

§ Raw data

STARLINK-341791 64103U 25110H   26263.45465260  .00014045  00000+0  46320-3 0  99952 64103  53.1579 201.9721 0002201  86.1437 273.9816 15.31719838 75703

JSON: /api/v1/satellites/64103 · /tle

For live sub-satellite position, see the globe view (requires WebGL).

§ Visibility from observer

Set your observer location to see the next 7 days of passes ≥ 10°. The values pass through the URL so the page stays shareable.

No JS? Fill the form by hand. The geolocation button needs JavaScript.